{"data":{"norad_id":63426,"intl_designator":"2025-065AD","name":"STARLINK-33615","alt_names":[],"object_type":"PAYLOAD","status":"ACTIVE","operator":null,"country":"US","launch_date":"2025-03-31","launch_site_code":"AFETR","launch_vehicle":null,"mission":null,"orbit_class":"UNKNOWN","rcs_meters":null,"size_class":null,"mass_kg":null,"dimensions":null,"purposes":["comms"],"wikipedia_slug":null,"has_3d_model":false,"image_url":null,"decayed_at":null,"tle_current":{"epoch":"2026-09-20T22:02:30.887520Z","epoch_age_seconds":122747,"freshness":"FRESH","line1":"1 63426U 25065AD  26263.91841305  .00010862  00000+0  40354-3 0  9994","line2":"2 63426  43.0004  84.8106 0001639 271.2569  88.8095 15.27590089 82691","mean_motion":15.27590089,"eccentricity":0.0001639,"inclination_deg":43.0004,"raan_deg":84.8106,"arg_perigee_deg":271.2569,"mean_anomaly_deg":88.8095,"bstar":0.00040354,"rev_number":8269,"period_min":94.266126126981,"perigee_km":481.89434266069,"apogee_km":484.14342956016,"semimajor_km":6861.1558861104,"source":"CELESTRAK","updated_at":"2026-09-21T09:00:34.983483Z"}}}